Location: Clover
(42.5131°N, 114.6874°W)
Time: 01:01:02
(UTC+00:00)

Envisat - Visible Passes

Search period start: 16 October 2024 00:00
Search period end: 26 October 2024 00:00
Orbit: 762 x 764 km, 98.3° (Epoch: 15 October)

Date Brightness Start Highest point End Pass type
(mag) Time Alt. Az. Time Alt. Az. Time Alt. Az.
16 Oct 4.6 11:16:58 10° N 11:19:06 25° N 11:19:06 25° N visible
17 Oct 5.1 10:39:23 10° NNE 10:41:02 21° NNE 10:41:02 21° NNE visible
17 Oct 4.9 12:19:51 10° NNW 12:21:10 14° NW 12:21:10 14° NW visible
18 Oct 5.8 10:02:21 10° NE 10:02:57 13° NE 10:02:57 13° NE visible
18 Oct 4.7 11:41:16 10° N 11:43:06 20° NNW 11:43:06 20° NNW visible
19 Oct 4.9 11:03:22 10° N 11:05:01 21° N 11:05:01 21° N visible
20 Oct 5.5 10:25:58 10° NNE 10:26:57 16° NNE 10:26:57 16° NNE visible
20 Oct 4.9 12:05:49 10° NNW 12:07:05 15° NNW 12:07:05 15° NNW visible
21 Oct 4.9 11:27:33 10° N 11:29:01 19° N 11:29:01 19° N visible
22 Oct 5.3 10:49:50 10° NNE 10:50:56 17° NNE 10:50:56 17° NNE visible
22 Oct 5.1 12:30:57 10° NNW 12:31:04 10° NW 12:31:04 10° NW visible
23 Oct 5.9 10:12:36 10° NNE 10:12:51 11° NNE 10:12:51 11° NNE visible
23 Oct 5.0 11:51:56 10° N 11:53:00 15° NNW 11:53:00 15° NNW visible
24 Oct 5.2 11:13:53 10° N 11:14:55 16° N 11:14:55 16° N visible
25 Oct 5.6 10:36:20 10° NNE 10:36:50 13° NNE 10:36:50 13° NNE visible
25 Oct 5.2 12:16:39 10° NNW 12:16:59 11° NNW 12:16:59 11° NNW visible
